CCA8301 ZSPD-ZYHB

Flight info

Callsign CCA8301
Flight time N/A
Altitude 35100
Route ODU84D/16R ODULO B221 XDX/K0835S1070 H28 URBAD W172 IGDEG W173 NIXEP W8 DOBGA W202 UDETI A588 VENOS/K0835S1130 A588 NULRA W206 MAGBI W656 ISLUK W629 LARUN
Aircraft A21N/M-SDE3FGHIRWYZ/EB1

Departure

Time N/A
Airport Shanghai Pudong International Airport (ZSPD)

Arrival

Time 2026-04-25 06:25
Airport Harbin Taiping International Airport (ZYHB)
Time Latitude Longitude Altitude Speed Heading
2026-04-25 05:37 41.14611 123.97495 35080 ft 446 kts 25°
2026-04-25 05:37 41.20126 124.01469 35085 ft 448 kts 25°
2026-04-25 05:38 41.25596 124.05421 35079 ft 448 kts 25°
2026-04-25 05:38 41.31083 124.09386 35081 ft 448 kts 25°
2026-04-25 05:39 41.36555 124.13352 35060 ft 448 kts 25°
2026-04-25 05:39 41.42052 124.17360 35065 ft 448 kts 25°
2026-04-25 05:40 41.47460 124.21426 35054 ft 449 kts 25°
2026-04-25 05:40 41.52879 124.25520 35051 ft 449 kts 25°
2026-04-25 05:41 41.58329 124.29633 35051 ft 449 kts 25°
2026-04-25 05:41 41.63762 124.33738 35040 ft 450 kts 25°
2026-04-25 05:42 41.69191 124.37847 35039 ft 450 kts 25°
2026-04-25 05:42 41.74634 124.41976 35032 ft 451 kts 25°
2026-04-25 05:43 41.80088 124.46121 35031 ft 451 kts 25°
2026-04-25 05:43 41.85531 124.50265 35036 ft 451 kts 25°
2026-04-25 05:44 41.90966 124.54413 35030 ft 452 kts 25°
2026-04-25 05:44 41.96444 124.58604 35008 ft 452 kts 25°
2026-04-25 05:45 42.01944 124.62524 35004 ft 451 kts 22°
2026-04-25 05:45 42.07538 124.66343 34991 ft 451 kts 22°
2026-04-25 05:46 42.13188 124.70207 34996 ft 452 kts 22°
2026-04-25 05:46 42.18818 124.74073 34995 ft 453 kts 22°
2026-04-25 05:47 42.24403 124.77918 34992 ft 454 kts 22°
2026-04-25 05:47 42.30033 124.81802 34993 ft 454 kts 22°
2026-04-25 05:48 42.35684 124.85709 35000 ft 454 kts 22°
2026-04-25 05:48 42.41288 124.89591 35000 ft 454 kts 22°
2026-04-25 05:49 42.46930 124.93507 34998 ft 455 kts 22°
2026-04-25 05:49 42.52568 124.97427 34996 ft 456 kts 22°
2026-04-25 05:50 42.58295 125.01418 34986 ft 457 kts 22°
2026-04-25 05:50 42.63943 125.05364 34982 ft 457 kts 22°
2026-04-25 05:51 42.69577 125.09309 34970 ft 457 kts 22°
2026-04-25 05:51 42.75268 125.13300 34968 ft 457 kts 22°
2026-04-25 05:52 42.80894 125.17252 34958 ft 458 kts 22°
2026-04-25 05:52 42.86584 125.21225 34952 ft 458 kts 21°
2026-04-25 05:53 42.92249 125.25149 34953 ft 459 kts 21°
2026-04-25 05:53 42.97944 125.29099 34950 ft 459 kts 21°
2026-04-25 05:54 43.03653 125.33076 34951 ft 459 kts 21°
2026-04-25 05:54 43.12233 125.39068 34963 ft 459 kts 21°
2026-04-25 05:55 43.24078 125.47372 34974 ft 459 kts 21°
2026-04-25 05:56 43.29778 125.51379 34973 ft 459 kts 21°
2026-04-25 05:56 43.35424 125.55359 34970 ft 459 kts 20°
2026-04-25 05:57 43.41091 125.59364 34969 ft 459 kts 20°
2026-04-25 05:57 43.46794 125.63402 34966 ft 458 kts 20°
2026-04-25 05:58 43.52506 125.67453 34964 ft 458 kts 21°
2026-04-25 05:58 43.58152 125.71467 34963 ft 459 kts 21°
2026-04-25 05:59 43.63842 125.75521 34963 ft 459 kts 21°
2026-04-25 05:59 43.69528 125.79578 34965 ft 459 kts 20°
2026-04-25 06:00 43.75321 125.83124 34969 ft 452 kts 14°
2026-04-25 06:00 43.81205 125.86231 34898 ft 453 kts 14°
2026-04-25 06:01 43.84111 125.87791 34621 ft 452 kts 15°
2026-04-25 06:01 43.87019 125.89452 34345 ft 451 kts 16°
2026-04-25 06:01 43.89881 125.91157 34074 ft 448 kts 16°
2026-04-25 06:01 43.92715 125.92879 33799 ft 446 kts 17°
2026-04-25 06:02 43.95566 125.94627 33525 ft 447 kts 17°
2026-04-25 06:02 43.98424 125.96386 33257 ft 448 kts 17°
2026-04-25 06:02 44.01271 125.98141 32984 ft 449 kts 17°
2026-04-25 06:02 44.04155 125.99921 32711 ft 450 kts 17°
2026-04-25 06:03 44.07039 126.01704 32438 ft 452 kts 17°
2026-04-25 06:03 44.09927 126.03349 32162 ft 448 kts 11°
2026-04-25 06:03 44.12940 126.04503 31883 ft 442 kts
2026-04-25 06:03 44.15937 126.05244 31450 ft 441 kts
2026-04-25 06:04 44.18971 126.05891 30888 ft 441 kts
2026-04-25 06:04 44.22036 126.06526 30150 ft 442 kts
2026-04-25 06:04 44.25060 126.07164 29401 ft 443 kts
2026-04-25 06:04 44.28068 126.07815 28854 ft 439 kts
2026-04-25 06:05 44.31114 126.08482 28346 ft 436 kts
2026-04-25 06:05 44.34092 126.09139 27829 ft 432 kts
2026-04-25 06:05 44.37039 126.09789 27321 ft 428 kts
2026-04-25 06:05 44.39980 126.10437 26804 ft 424 kts
2026-04-25 06:06 44.42870 126.11069 26306 ft 420 kts
2026-04-25 06:06 44.45746 126.11697 25826 ft 416 kts
2026-04-25 06:06 44.48598 126.12321 25314 ft 413 kts
2026-04-25 06:06 44.51440 126.12945 24796 ft 409 kts
2026-04-25 06:07 44.54233 126.13567 24289 ft 406 kts
2026-04-25 06:07 44.57002 126.14184 23779 ft 403 kts
2026-04-25 06:07 44.59767 126.14803 23298 ft 400 kts
2026-04-25 06:07 44.62512 126.15421 22804 ft 397 kts
2026-04-25 06:08 44.65202 126.16026 22297 ft 395 kts
2026-04-25 06:08 44.67961 126.16644 21793 ft 392 kts
2026-04-25 06:08 44.70648 126.17239 21300 ft 390 kts 359°
2026-04-25 06:08 44.73348 126.17669 20801 ft 384 kts 355°
2026-04-25 06:09 44.75978 126.17937 20320 ft 381 kts 354°
2026-04-25 06:09 44.78252 126.18140 19880 ft 380 kts 354°
2026-04-25 06:09 44.81184 126.18394 19338 ft 377 kts 354°
2026-04-25 06:09 44.83777 126.18623 18849 ft 376 kts 354°
2026-04-25 06:10 44.86370 126.18854 18360 ft 374 kts 353°
2026-04-25 06:10 44.88979 126.19089 17885 ft 372 kts 353°
2026-04-25 06:10 44.91587 126.19325 17387 ft 371 kts 353°
2026-04-25 06:10 44.94165 126.19559 16908 ft 369 kts 353°
2026-04-25 06:11 44.96729 126.19794 16412 ft 367 kts 353°
2026-04-25 06:11 44.99292 126.20030 15926 ft 366 kts 353°
2026-04-25 06:11 45.01810 126.20261 15423 ft 364 kts 353°
2026-04-25 06:11 45.04351 126.20493 14912 ft 363 kts 353°
2026-04-25 06:12 45.06861 126.20730 14389 ft 362 kts 353°
2026-04-25 06:12 45.09367 126.20959 13898 ft 360 kts 353°
2026-04-25 06:12 45.11845 126.21188 13423 ft 357 kts 353°
2026-04-25 06:12 45.14323 126.21410 12934 ft 355 kts 353°
2026-04-25 06:13 45.16809 126.21629 12439 ft 353 kts 354°
2026-04-25 06:13 45.19227 126.21856 11975 ft 349 kts 354°
2026-04-25 06:13 45.21668 126.22085 11492 ft 344 kts 354°
2026-04-25 06:14 45.26377 126.22518 10604 ft 337 kts 354°
2026-04-25 06:14 45.28709 126.22734 10191 ft 329 kts 354°
2026-04-25 06:14 45.30930 126.22946 10089 ft 314 kts 355°
2026-04-25 06:14 45.33066 126.23158 10022 ft 296 kts 354°
2026-04-25 06:15 45.35069 126.23350 9951 ft 282 kts 353°
2026-04-25 06:15 45.37010 126.23524 9787 ft 279 kts 353°
2026-04-25 06:15 45.38953 126.23691 9423 ft 278 kts 354°
2026-04-25 06:15 45.40871 126.23856 9074 ft 277 kts 355°
2026-04-25 06:16 45.42777 126.24039 8863 ft 269 kts 355°
2026-04-25 06:16 45.44585 126.24219 8848 ft 253 kts 354°
2026-04-25 06:16 45.46315 126.24586 8833 ft 257 kts
2026-04-25 06:16 45.47941 126.25855 8749 ft 271 kts 30°
2026-04-25 06:17 45.49399 126.27537 8585 ft 268 kts 33°
2026-04-25 06:17 45.50807 126.29241 8242 ft 267 kts 34°
2026-04-25 06:17 45.52227 126.30961 7889 ft 266 kts 34°
2026-04-25 06:17 45.53633 126.32649 7588 ft 262 kts 34°
2026-04-25 06:18 45.55045 126.34324 7286 ft 259 kts 34°
2026-04-25 06:18 45.56415 126.35935 6993 ft 255 kts 34°
2026-04-25 06:18 45.57774 126.37534 6671 ft 253 kts 35°
2026-04-25 06:18 45.59126 126.39131 6331 ft 252 kts 35°
2026-04-25 06:19 45.60482 126.40730 5974 ft 250 kts 35°
2026-04-25 06:19 45.61809 126.42288 5616 ft 248 kts 35°
2026-04-25 06:19 45.63149 126.43854 5259 ft 246 kts 35°
2026-04-25 06:19 45.64465 126.45402 4911 ft 244 kts 36°
2026-04-25 06:20 45.65787 126.46864 4547 ft 241 kts 26°
2026-04-25 06:20 45.67356 126.47557 4027 ft 236 kts 357°
2026-04-25 06:20 45.68883 126.47002 3524 ft 227 kts 327°
2026-04-25 06:20 45.69986 126.45415 3019 ft 222 kts 304°
2026-04-25 06:21 45.70876 126.43655 2526 ft 220 kts 306°
2026-04-25 06:21 45.71684 126.41840 2152 ft 211 kts 299°
2026-04-25 06:21 45.72368 126.40078 2107 ft 199 kts 294°
2026-04-25 06:21 45.72588 126.38188 2077 ft 185 kts 258°
2026-04-25 06:22 45.72002 126.36594 2223 ft 183 kts 233°
2026-04-25 06:22 45.71143 126.35346 2141 ft 164 kts 224°
2026-04-25 06:22 45.70344 126.34380 2058 ft 142 kts 222°
2026-04-25 06:22 45.69576 126.33485 2045 ft 142 kts 221°
2026-04-25 06:23 45.68816 126.32599 1878 ft 140 kts 221°
2026-04-25 06:23 45.68064 126.31720 1688 ft 138 kts 221°
2026-04-25 06:23 45.67317 126.30846 1499 ft 138 kts 222°
2026-04-25 06:23 45.66569 126.29969 1332 ft 138 kts 221°
2026-04-25 06:24 45.65832 126.29105 1130 ft 140 kts 221°
2026-04-25 06:24 45.65071 126.28233 967 ft 137 kts 220°
2026-04-25 06:24 45.64338 126.27374 733 ft 138 kts 222°
2026-04-25 06:24 45.63615 126.26515 576 ft 135 kts 222°
2026-04-25 06:25 45.62923 126.25693 510 ft 107 kts 222°
2026-04-25 06:25 45.62546 126.25250 510 ft 53 kts 219°
2026-04-25 06:25 45.62296 126.24957 510 ft 38 kts 220°
2026-04-25 06:25 45.62203 126.24764 510 ft 22 kts 245°
2026-04-25 06:26 45.62148 126.24573 510 ft 20 kts 248°
2026-04-25 06:26 45.62079 126.24404 510 ft 19 kts 228°
2026-04-25 06:26 45.61978 126.24279 510 ft 18 kts 220°
2026-04-25 06:26 45.61877 126.24161 510 ft 18 kts 219°
2026-04-25 06:27 45.61808 126.24081 510 ft 18 kts 219°
2026-04-25 06:27 45.61745 126.24005 510 ft 18 kts 219°
2026-04-25 06:27 45.61647 126.23887 510 ft 0 kts 219°
2026-04-25 06:27 45.61643 126.23881 510 ft 0 kts 240°
2026-04-25 06:28 45.61647 126.23872 510 ft 2 kts 315°
2026-04-25 06:28 45.61670 126.23832 510 ft 7 kts 299°
2026-04-25 06:28 45.61681 126.23754 510 ft 10 kts 286°
2026-04-25 06:28 45.61705 126.23699 510 ft 10 kts 308°
2026-04-25 06:29 45.61749 126.23668 510 ft 5 kts 26°
2026-04-25 06:29 45.61771 126.23692 510 ft 6 kts 39°
2026-04-25 06:29 45.61781 126.23703 510 ft 0 kts 39°
2026-04-25 06:29 45.61782 126.23704 510 ft 0 kts 40°